Location: Poughquag
(41.6090°N, 73.6820°W)
Time: 12:49:33
(UTC-04:00)

Tiros 1 despin weight - Pass Details

Date: 31 May 2020
Orbit: 593 x 642 km, 48.2° (Epoch: 07 July)

Event Time Altitude Azimuth Distance (km) Brightness Sun altitude
Rises 11:02:53 0° 234° (SW) 2,920 ? 59.8°
Reaches altitude 10° 11:05:13 10° 233° (SW) 2,008 ? 60.2°
Maximum altitude 11:09:50 74° 149° (SSE) 653 ? 60.9°
Drops below altitude 10° 11:14:24 10° 64° (ENE) 1,986 ? 61.6°
Sets 11:16:42 0° 63° (ENE) 2,886 ? 61.9°
